Date String (YYYY-MM-DD hh:mm:ss) UTC,Instrument flags,absolute air pressure of the measurement (hPa),sample flow rate (lpm),inlet stack bypass flow (lpm),air temperature of the measurement (°C),ambient temperature measured by the external sensor (°C),aerosol sample conditioner tube jacket temperature (°C),OPC LED temperature (°C),internal box temperature (°C),relative humidity of the measurement (%),span deviation,mass concentration of particles derived from Lorenz-Mie calculation of OPC scattering (μg/m³),mass concentration of particles derived from Lorenz-Mie calculation of OPC scattering (μg/m³),mass concentration of particles derived from Lorenz-Mie calculation of OPC scattering (μg/m³)
DateTimeUTC,F1_M11,P_M11,Q1_M11,Q2_M11,T1_M11,T2_M11,T3_M11,T4_M11,T5_M11,U1_M11,ZSPAN_M11,X0_M11,X2_M11,X1_M11
2023-09-24 22:00:00,SystemResetWarning,0832.7,5.00,000.00,028.2,027.1,000.0,036.4,029.9,11.6,0000.4,0010.89,0003.60,0003.11
2023-09-24 22:01:00,SystemResetWarning,0832.6,5.00,000.00,028.2,027.3,000.0,036.4,030.0,11.5,0001.4,0010.87,0003.60,0003.11
2023-09-24 22:02:00,SystemResetWarning,0832.6,4.99,000.00,028.3,027.4,000.0,036.4,030.1,11.4,0000.0,0010.93,0003.63,0003.12
2023-09-24 22:03:00,SystemResetWarning,0832.6,4.99,000.00,028.3,026.2,000.0,036.4,029.8,11.4,0000.0,0010.67,0003.63,0003.12
2023-09-24 22:04:00,SystemResetWarning,0832.6,5.00,000.00,028.1,024.5,000.0,036.3,029.4,11.6,0000.0,0010.34,0003.66,0003.12
2023-09-24 22:05:00,SystemResetWarning,0832.5,5.01,000.00,028.0,024.2,000.0,036.3,029.3,11.7,0001.3,0010.42,0003.69,0003.12
2023-09-24 22:06:00,SystemResetWarning,0832.5,5.01,000.00,027.9,024.5,000.0,036.3,029.3,11.9,0001.3,0010.94,0003.68,0003.12
2023-09-24 22:07:00,SystemResetWarning,0832.5,5.00,000.00,027.9,024.9,000.0,036.3,029.3,11.8,-000.0,0010.79,0003.63,0003.11
2023-09-24 22:08:00,SystemResetWarning,0832.6,4.99,000.00,027.9,025.3,000.0,036.3,029.4,12.0,0000.0,0010.76,0003.60,0003.11
2023-09-24 22:09:00,SystemResetWarning,0832.6,5.01,000.00,027.9,025.7,000.0,036.3,029.5,12.0,0000.2,0011.13,0003.61,0003.11
2023-09-24 22:10:00,SystemResetWarning,0832.6,5.00,000.00,027.9,026.1,000.0,036.3,029.6,12.4,0001.0,0010.38,0003.64,0003.12
2023-09-24 22:11:00,SystemResetWarning,0832.6,5.00,000.00,028.0,026.4,000.0,036.3,029.7,12.1,0000.7,0009.55,0003.64,0003.13
2023-09-24 22:12:00,SystemResetWarning,0832.7,4.99,000.00,028.0,026.7,000.0,036.3,029.8,12.1,0000.0,0010.36,0003.64,0003.12
2023-09-24 22:13:00,SystemResetWarning,0832.7,5.00,000.00,028.1,026.9,000.0,036.3,029.9,11.9,0000.0,0010.39,0003.64,0003.12
2023-09-24 22:14:00,SystemResetWarning,0832.7,4.99,000.00,028.2,027.1,000.0,036.4,029.9,11.9,0000.2,0010.66,0003.65,0003.13
2023-09-24 22:15:00,SystemResetWarning,0832.7,5.00,000.00,028.2,027.3,000.0,036.4,030.0,11.9,0000.0,0010.55,0003.63,0003.14
2023-09-24 22:16:00,SystemResetWarning,0832.7,5.00,000.00,028.3,026.7,000.0,036.4,029.9,11.8,0000.0,0010.52,0003.62,0003.14
2023-09-24 22:17:00,SystemResetWarning,0832.7,5.00,000.00,028.2,024.9,000.0,036.3,029.5,11.7,0000.0,0010.39,0003.65,0003.15
2023-09-24 22:18:00,SystemResetWarning,0832.6,5.00,000.00,028.0,024.2,000.0,036.3,029.3,11.6,0000.0,0010.63,0003.67,0003.16
2023-09-24 22:19:00,SystemResetWarning,0832.6,5.01,000.00,027.9,024.4,000.0,036.2,029.3,11.8,0000.0,0010.89,0003.71,0003.15
2023-09-24 22:20:00,SystemResetWarning,0832.6,5.00,000.00,027.9,024.7,000.0,036.2,029.3,11.8,0000.0,0011.25,0003.71,0003.15
2023-09-24 22:21:00,SystemResetWarning,0832.7,5.00,000.00,027.9,025.1,000.0,036.2,029.3,12.0,0000.0,0011.19,0003.67,0003.14
2023-09-24 22:22:00,SystemResetWarning,0832.7,5.00,000.00,027.9,025.5,000.0,036.2,029.4,12.0,0000.0,0010.72,0003.64,0003.13
2023-09-24 22:23:00,SystemResetWarning,0832.6,5.00,000.00,027.9,026.0,000.0,036.3,029.5,11.7,0000.0,0010.10,0003.65,0003.14
2023-09-24 22:24:00,SystemResetWarning,0832.6,5.01,000.00,028.0,026.3,000.0,036.3,029.6,11.8,0000.0,0010.22,0003.61,0003.13
2023-09-24 22:25:00,SystemResetWarning,0832.7,4.99,000.00,028.0,026.6,000.0,036.3,029.7,11.7,0000.0,0010.01,0003.59,0003.12
2023-09-24 22:26:00,SystemResetWarning,0832.7,4.99,000.00,028.1,026.8,000.0,036.3,029.8,11.9,0000.0,0009.79,0003.59,0003.11
2023-09-24 22:27:00,SystemResetWarning,0832.7,5.00,000.00,028.1,027.1,000.0,036.4,029.9,11.7,0000.0,0009.78,0003.60,0003.11
2023-09-24 22:28:00,SystemResetWarning,0832.7,5.00,000.00,028.2,027.2,000.0,036.4,030.0,12.0,0000.0,0009.34,0003.56,0003.10
2023-09-24 22:29:00,SystemResetWarning,0832.8,5.00,000.00,028.3,027.4,000.0,036.4,030.1,11.9,0000.0,0008.95,0003.57,0003.10
2023-09-24 22:30:00,SystemResetWarning,0832.8,4.98,000.00,028.3,026.6,000.0,036.4,029.9,11.4,0000.0,0008.83,0003.55,0003.10
2023-09-24 22:31:00,SystemResetWarning,0832.7,5.01,000.00,028.2,024.7,000.0,036.3,029.5,11.4,0000.0,0009.16,0003.53,0003.09
2023-09-24 22:32:00,SystemResetWarning,0832.8,5.01,000.00,028.1,024.2,000.0,036.3,029.4,11.5,0000.0,0009.32,0003.53,0003.09
2023-09-24 22:33:00,SystemResetWarning,0832.8,5.01,000.00,028.0,024.4,000.0,036.3,029.3,11.8,0000.0,0010.51,0003.57,0003.11
2023-09-24 22:34:00,SystemResetWarning,0832.8,4.99,000.00,027.9,024.8,000.0,036.3,029.3,11.8,0000.0,0011.08,0003.57,0003.11
2023-09-24 22:35:00,SystemResetWarning,0832.8,5.01,000.00,027.9,025.2,000.0,036.3,029.4,11.6,0000.0,0010.14,0003.56,0003.12
2023-09-24 22:36:00,SystemResetWarning,0832.8,5.00,000.00,027.9,025.6,000.0,036.3,029.5,11.7,0000.0,0010.07,0003.57,0003.12
2023-09-24 22:37:00,SystemResetWarning,0832.8,4.99,000.00,028.0,026.0,000.0,036.3,029.6,11.9,0000.0,0010.15,0003.60,0003.13
2023-09-24 22:38:00,SystemResetWarning,0832.8,4.99,000.00,028.0,026.4,000.0,036.3,029.7,11.7,0000.0,0010.24,0003.63,0003.13
2023-09-24 22:39:00,SystemResetWarning,0832.8,5.02,000.00,028.1,026.6,000.0,036.3,029.8,11.6,0000.0,0010.21,0003.63,0003.13
2023-09-24 22:40:00,SystemResetWarning,0832.8,5.01,000.00,028.1,026.9,000.0,036.3,029.9,11.5,0000.0,0010.26,0003.62,0003.13
2023-09-24 22:41:00,SystemResetWarning,0832.8,4.99,000.00,028.2,027.1,000.0,036.4,029.9,11.6,0000.0,0010.05,0003.60,0003.13
2023-09-24 22:42:00,SystemResetWarning,0832.8,4.99,000.00,028.2,027.3,000.0,036.4,030.0,11.7,0000.0,0009.22,0003.64,0003.15
2023-09-24 22:43:00,SystemResetWarning,0833.0,5.01,000.00,028.3,027.4,000.0,036.4,030.1,11.6,0000.0,0008.82,0003.67,0003.16
2023-09-24 22:44:00,SystemResetWarning,0832.8,4.99,000.00,028.3,026.4,000.0,036.4,029.9,11.6,0000.0,0007.60,0003.64,0003.16
2023-09-24 22:45:00,SystemResetWarning,0832.8,5.01,000.00,028.2,024.6,000.0,036.4,029.5,11.7,0000.0,0006.60,0003.66,0003.17
2023-09-24 22:46:00,SystemResetWarning,0832.8,5.00,000.00,028.1,024.3,000.0,036.3,029.4,11.6,0000.0,0006.69,0003.68,0003.17
2023-09-24 22:47:00,SystemResetWarning,0832.8,5.01,000.00,028.0,024.5,000.0,036.3,029.3,11.6,0000.0,0006.78,0003.69,0003.18
2023-09-24 22:48:00,SystemResetWarning,0832.8,5.00,000.00,027.9,024.9,000.0,036.3,029.4,11.5,0000.0,0006.88,0003.72,0003.18
2023-09-24 22:49:00,SystemResetWarning,0833.0,5.01,000.00,027.9,025.3,000.0,036.3,029.4,11.4,0000.0,0006.80,0003.72,0003.19
2023-09-24 22:50:00,SystemResetWarning,0833.3,4.99,000.00,028.0,025.7,000.0,036.3,029.5,11.4,0000.0,0006.89,0003.74,0003.20
2023-09-24 22:51:00,SystemResetWarning,0833.5,5.00,000.00,028.0,026.1,000.0,036.3,029.6,11.4,0000.0,0006.90,0003.74,0003.19
2023-09-24 22:52:00,SystemResetWarning,0833.4,5.00,000.00,028.0,026.4,000.0,036.3,029.7,11.5,0000.0,0006.94,0003.74,0003.20
2023-09-24 22:53:00,SystemResetWarning,0833.2,5.00,000.00,028.1,026.7,000.0,036.4,029.8,11.5,0000.0,0007.38,0003.76,0003.21
2023-09-24 22:54:00,SystemResetWarning,0832.9,5.00,000.00,028.1,026.9,000.0,036.4,029.9,11.4,0000.0,0007.58,0003.76,0003.21
2023-09-24 22:55:00,SystemResetWarning,0833.0,4.99,000.00,028.2,027.1,000.0,036.4,030.0,11.0,0000.0,0007.77,0003.79,0003.21
2023-09-24 22:56:00,SystemResetWarning,0832.8,4.99,000.00,028.3,027.3,000.0,036.4,030.0,11.2,0000.0,0008.41,0003.79,0003.20
2023-09-24 22:57:00,SystemResetWarning,0833.0,5.00,000.00,028.3,026.9,000.0,036.4,030.0,11.5,0000.0,0008.48,0003.81,0003.20
2023-09-24 22:58:00,SystemResetWarning,0833.1,5.01,000.00,028.2,025.1,000.0,036.4,029.5,11.2,0000.0,0008.68,0003.80,0003.19
2023-09-24 22:59:00,SystemResetWarning,0833.2,5.01,000.00,028.1,024.2,000.0,036.3,029.3,11.1,0000.0,0008.61,0003.75,0003.18
